FW4407 Weather Reports


Display with metric or nautical units.
time (UTC)temp
F
wind
direction
speed
MPH
gust
MPH
rain 1hr
in
rain 24hr
in
rain mn
in
humidity
%
barometer
mb
20260506134516 79 228 2.0 8.0 0.00 0.00 0.00 36 1015.1
20260506133521 79 265 1.0 5.0 0.00 0.00 0.00 36 1015.1
20260506132526 79 237 2.0 8.0 0.00 0.00 0.00 36 1015.1
20260506131551 79 249 1.0 8.0 0.00 0.00 0.00 33 1015.1
20260506130519 79 282 1.0 8.0 0.00 0.00 0.00 33 1015.1
20260506125524 79 261 2.0 8.0 0.00 0.00 0.00 35 1015.1
20260506124529 79 280 1.0 8.0 0.00 0.00 0.00 35 1015.2
20260506123517 79 232 3.0 10.0 0.00 0.00 0.00 35 1015.3
20260506122542 79 257 4.0 10.0 0.00 0.00 0.00 36 1015.2
20260506121527 79 231 3.0 10.0 0.00 0.00 0.00 34 1015.2
20260506120515 79 242 1.0 5.0 0.00 0.00 0.00 35 1015.5
20260506115520 79 249 2.0 8.0 0.00 0.00 0.00 37 1015.5
20260506114525 79 242 3.0 13.0 0.00 0.00 0.00 35 1015.5
20260506113530 79 229 2.0 5.0 0.00 0.00 0.00 36 1015.6
20260506112518 79 236 3.0 10.0 0.00 0.00 0.00 36 1015.6
20260506111523 79 236 3.0 10.0 0.00 0.00 0.00 36 1015.5
20260506110528 79 222 2.0 8.0 0.00 0.00 0.00 36 1015.6
20260506105515 79 235 2.0 8.0 0.00 0.00 0.00 35 1015.5
20260506104521 79 267 1.0 8.0 0.00 0.00 0.00 36 1015.6
20260506103526 79 247 1.0 5.0 0.00 0.00 0.00 36 1015.6
20260506102530 79 274 1.0 8.0 0.00 0.00 0.00 37 1015.6
20260506101519 79 245 2.0 5.0 0.00 0.00 0.00 37 1015.7
20260506100524 80 231 3.0 8.0 0.00 0.00 0.00 38 1015.6
20260506095529 80 230 1.0 8.0 0.00 0.00 0.00 37 1015.9
20260506094517 79 229 1.0 8.0 0.00 0.00 0.00 36 1015.8
20260506093522 79 235 1.0 5.0 0.00 0.00 0.00 36 1015.9
20260506092527 79 336 1.0 5.0 0.00 0.00 0.00 36 1015.9
20260506091552 79 219 1.0 8.0 0.00 0.00 0.00 37 1015.9
20260506090520 78 227 1.0 5.0 0.00 0.00 0.00 36 1015.9
20260506085525 78 210 1.0 5.0 0.00 0.00 0.00 37 1015.9
20260506084530 78 197 1.0 5.0 0.00 0.00 0.00 38 1015.8
20260506083518 78 257 0.0 2.0 0.00 0.00 0.00 38 1015.8
20260506082523 77 227 1.0 8.0 0.00 0.00 0.00 37 1015.8
20260506081528 77 235 1.0 5.0 0.00 0.00 0.00 38 1015.8
20260506080516 76 48 0.0 2.0 0.00 0.00 0.00 39 1015.9
20260506072518 75 0.0 0.0 0.00 0.00 0.00 40 1015.5
20260506071524 75 0.0 0.0 0.00 0.00 0.00 41 1015.5
20260506070528 75 255 0.0 2.0 0.00 0.00 0.00 43 1015.4
20260506061520 70 0.0 0.0 0.00 0.00 0.00 48 1015.5
20260506060524 68 0.0 0.0 0.00 0.00 0.00 46 1015.4
20260506050520 62 0.0 0.0 0.00 0.00 0.00 62 1015.1
20260506044530 60 0.0 0.0 0.00 0.00 0.00 60 1015.0
20260506043519 58 0.0 0.0 0.00 0.00 0.00 64 1015.1
20260506042523 57 0.0 0.0 0.00 0.00 0.00 67 1014.8
20260506041528 56 0.0 0.0 0.00 0.00 0.00 70 1014.8
20260506040516 56 0.0 0.0 0.00 0.00 0.00 71 1014.7
20260506035522 56 0.0 0.0 0.00 0.00 0.00 71 1014.8
20260506034526 55 0.0 0.0 0.00 0.00 0.00 71 1014.6
20260506033531 55 0.0 0.0 0.00 0.00 0.00 71 1014.4
20260506032520 55 0.0 0.0 0.00 0.00 0.00 71 1014.4
20260506031524 55 0.0 0.0 0.00 0.00 0.00 71 1014.4
20260506030530 55 354 0.0 2.0 0.00 0.00 0.00 71 1014.4
20260506025517 56 0.0 0.0 0.00 0.00 0.00 72 1014.2
20260506024522 56 0.0 0.0 0.00 0.00 0.00 71 1014.3
20260506023528 56 0.0 0.0 0.00 0.00 0.00 70 1014.3
20260506022532 56 0.0 0.0 0.00 0.00 0.00 70 1014.4
20260506021540 56 0.0 0.0 0.00 0.00 0.00 70 1014.3
20260506020546 56 0.0 0.0 0.00 0.00 0.00 70 1014.4
20260506015531 57 0.0 0.0 0.00 0.00 0.00 69 1014.5
20260506014519 57 0.0 0.0 0.00 0.00 0.00 69 1014.4
20260506013524 57 0.0 0.0 0.00 0.00 0.00 68 1014.6
20260506012528 57 0.0 0.0 0.00 0.00 0.00 68 1014.8
20260506011517 57 0.0 0.0 0.00 0.00 0.00 67 1014.6
20260506010521 57 0.0 0.0 0.00 0.00 0.00 67 1014.6
20260506005526 57 0.0 0.0 0.00 0.00 0.00 67 1014.6
20260506004552 58 0.0 0.0 0.00 0.00 0.00 67 1014.7
20260506003519 58 0.0 0.0 0.00 0.00 0.00 67 1014.6
20260506002525 58 0.0 0.0 0.00 0.00 0.00 66 1014.8
20260506001530 58 0.0 0.0 0.00 0.00 0.00 66 1014.8
20260506000517 59 0.0 0.0 0.00 0.00 0.00 67 1014.8
20260505235542 60 0.0 0.0 0.00 0.00 0.00 66 1014.8
20260505234527 60 0.0 0.0 0.00 0.00 0.00 66 1014.8
20260505233515 60 0.0 0.0 0.00 0.00 0.00 64 1014.8
20260505232520 59 0.0 0.0 0.00 0.00 0.00 66 1014.9
20260505231525 59 0.0 0.0 0.00 0.00 0.00 68 1015.0
20260505230530 59 0.0 0.0 0.00 0.00 0.00 69 1015.1
20260505225518 59 0.0 0.0 0.00 0.00 0.00 68 1015.1
20260505224523 59 0.0 0.0 0.00 0.00 0.00 67 1015.1
20260505223528 59 0.0 0.0 0.00 0.00 0.00 66 1015.1
20260505222516 60 0.0 0.0 0.00 0.00 0.00 66 1015.1
20260505221521 60 0.0 0.0 0.00 0.00 0.00 66 1015.1
20260505220526 60 0.0 0.0 0.00 0.00 0.00 65 1015.1
20260505215526 60 0.0 0.0 0.00 0.00 0.00 66 1015.1
20260505214531 61 0.0 0.0 0.00 0.00 0.00 66 1015.1
20260505213519 61 0.0 0.0 0.00 0.00 0.00 64 1015.1
20260505212524 61 0.0 0.0 0.00 0.00 0.00 63 1015.1
20260505211530 61 0.0 0.0 0.00 0.00 0.00 65 1015.2
20260505210517 61 0.0 0.0 0.00 0.00 0.00 65 1015.4
20260505205522 61 0.0 0.0 0.00 0.00 0.00 65 1015.1
20260505204527 61 0.0 0.0 0.00 0.00 0.00 65 1015.2
20260505203515 61 0.0 0.0 0.00 0.00 0.00 66 1015.4
20260505202520 61 0.0 0.0 0.00 0.00 0.00 65 1015.4
20260505201525 62 359 0.0 2.0 0.00 0.00 0.00 65 1015.4
20260505200530 62 0.0 0.0 0.00 0.00 0.00 65 1015.3
20260505195538 62 0.0 0.0 0.00 0.00 0.00 64 1015.4
20260505194544 63 0.0 0.0 0.00 0.00 0.00 65 1015.4
20260505193548 64 0.0 0.0 0.00 0.00 0.00 64 1015.3
20260505192516 65 2 0.0 2.0 0.00 0.00 0.00 63 1015.4
20260505191541 65 0.0 0.0 0.00 0.00 0.00 61 1015.3
20260505190546 65 0.0 0.0 0.00 0.00 0.00 56 1015.2
20260505185531 65 0.0 0.0 0.00 0.00 0.00 56 1015.1
20260505184519 66 0.0 0.0 0.00 0.00 0.00 56 1015.1
20260505183544 66 0.0 0.0 0.00 0.00 0.00 54 1015.1
20260505182529 67 0.0 0.0 0.00 0.00 0.00 54 1015.0
20260505181518 67 0.0 0.0 0.00 0.00 0.00 53 1014.9
20260505180522 68 0.0 0.0 0.00 0.00 0.00 50 1014.7
20260505175527 68 0.0 0.0 0.00 0.00 0.00 48 1014.6
20260505174515 69 0.0 0.0 0.00 0.00 0.00 49 1014.5
20260505173520 69 0.0 0.0 0.00 0.00 0.00 50 1014.3
20260505172525 70 0.0 0.0 0.00 0.00 0.00 49 1014.2
20260505171530 71 178 0.0 5.0 0.00 0.00 0.00 48 1014.3
20260505170518 72 215 0.0 5.0 0.00 0.00 0.00 48 1014.3
20260505165523 73 144 1.0 5.0 0.00 0.00 0.00 48 1014.3
20260505164528 75 193 0.0 5.0 0.00 0.00 0.00 47 1014.5
20260505163536 76 0.0 0.0 0.00 0.00 0.00 45 1014.6
20260505162521 77 167 1.0 5.0 0.00 0.00 0.00 43 1014.3
20260505161526 77 0.0 0.0 0.00 0.00 0.00 36 1014.2
20260505160551 77 187 0.0 2.0 0.00 0.00 0.00 32 1014.1
20260505152517 79 307 1.0 5.0 0.00 0.00 0.00 32 1014.1
20260505151522 79 216 0.0 2.0 0.00 0.00 0.00 31 1014.1
20260505150527 79 246 1.0 5.0 0.00 0.00 0.00 31 1014.2
20260505140523 78 227 2.0 8.0 0.00 0.00 0.00 29 1014.3